Location: St. Louis
(38.6270°N, 90.1994°W)
Time: 07:54:49
(UTC-06:00)

Transit 4A - Pass Details

Date: 09 December 2021
Orbit: 864 x 981 km, 66.8° (Epoch: 19 January)

Event Time Altitude Azimuth Distance (km) Brightness Sun altitude
Rises 18:12:24 0° 220° (SW) 3,445 11.8 -17.6°
Reaches altitude 10° 18:14:54 10° 225° (SW) 2,521 11.1 -18.1°
Maximum altitude 18:20:37 55° 302° (WNW) 1,064 8.4 -19.1°
Enters shadow 18:25:48 14° 18° (NNE) 2,344 9.7 -20.1°
Drops below altitude 10° 18:26:31 10° 20° (NNE) 2,604 - -20.3°
Sets 18:29:09 0° 25° (NNE) 3,568 - -20.8°
